This demonstration page uses our WeatherBlox Daily Observations layout. Learn more.

Left ArrowRight Arrow

Hourly Observations for June 4, 2021

Temp ( °F °C ) Dew Point ( °F °C ) Humidity (%) Winds ( mph kmh ) Pressure ( in mb ) Visibility ( mi km ) Precip ( " mm )
12:15 am 00:15 undefined 68 20.1 56 13.2 65 65 S 10 17 29.88 1012 10 16 N/A
12:35 am 00:35 undefined 68 20 55 13 64 64 S 12 19 29.89 1012 10 16 N/A
12:55 am 00:55 undefined 68 19.8 55 13 65 65 S 10 17 29.89 1012 10 16 N/A
1:15 am 01:15 undefined 67 19.5 55 13 66 66 S 9 15 29.89 1012 10 16 N/A
1:35 am 01:35 undefined 66 19.1 55 13 68 68 S 9 15 29.89 1012 10 16 N/A
1:55 am 01:55 undefined 66 18.8 55 12.8 68 68 SSW 9 15 29.90 1012 10 16 N/A
2:15 am 02:15 undefined 65 18.5 55 12.6 69 69 SSW 8 13 29.90 1013 10 16 N/A
2:35 am 02:35 undefined 64 17.9 55 12.6 71 71 SSW 6 9 29.90 1013 10 16 N/A
2:55 am 02:55 undefined 64 17.6 55 12.6 73 73 SSW 7 11 29.91 1013 10 16 N/A
3:15 am 03:15 undefined 64 17.6 55 12.5 72 72 SSW 8 13 29.91 1013 10 16 N/A
3:35 am 03:35 undefined 63 17 55 12.5 75 75 SSW 6 9 29.91 1013 10 16 N/A
3:55 am 03:55 undefined 63 17 54 12.3 74 74 SSW 8 13 29.90 1013 10 16 N/A
4:15 am 04:15 undefined 63 17.1 54 12.1 73 73 SSW 7 11 29.90 1013 10 16 N/A
4:35 am 04:35 undefined 63 17 54 12 73 73 SSW 8 13 29.90 1013 10 16 N/A
4:55 am 04:55 undefined 63 17 53 11.9 72 72 SSW 8 13 29.90 1013 10 16 N/A
5:15 am 05:15 undefined 62 16.7 53 11.7 73 73 SSW 8 13 29.90 1013 10 16 N/A
5:35 am 05:35 undefined 61 16.3 53 11.7 74 74 SSW 7 11 29.91 1013 10 16 N/A
5:55 am 05:55 undefined 61 16.1 53 11.7 75 75 SW 6 9 29.91 1013 10 16 N/A
6:15 am 06:15 undefined 61 16.1 53 11.7 75 75 SW 6 9 29.91 1013 10 16 N/A
6:35 am 06:35 undefined 61 16.1 54 12 77 77 SW 6 9 29.91 1013 10 16 N/A
6:55 am 06:55 undefined 62 16.8 54 12.1 74 74 SW 7 11 29.91 1013 10 16 N/A
7:15 am 07:15 undefined 64 17.8 54 12.1 69 69 SW 7 11 29.91 1013 10 16 N/A
7:35 am 07:35 undefined 66 18.9 54 12.4 66 66 SW 6 9 29.90 1012 10 16 N/A
7:55 am 07:55 undefined 67 19.6 55 12.5 64 64 SW 7 11 29.90 1013 10 16 N/A
8:15 am 08:15 undefined 69 20.7 55 12.5 60 60 WSW 6 9 29.89 1012 10 16 N/A
8:35 am 08:35 undefined 71 21.8 54 12.2 55 55 WSW 12 19 29.87 1012 10 16 N/A
8:55 am 08:55 undefined 73 22.5 54 12.1 52 52 SW 14 22 29.88 1012 10 16 N/A
9:15 am 09:15 undefined 74 23.1 55 12.5 51 51 WSW 12 19 29.87 1012 10 16 N/A
9:35 am 09:35 undefined 75 23.8 55 12.9 51 51 WSW 10 17 29.87 1011 10 16 N/A
9:55 am 09:55 undefined 76 24.4 55 12.9 49 49 SW 13 20 29.85 1011 10 16 N/A
10:15 am 10:15 undefined 78 25.4 57 13.7 48 48 SW 10 17 29.84 1011 10 16 N/A
10:35 am 10:35 undefined 78 25.8 57 13.7 47 47 SW 12 19 29.84 1011 10 16 N/A
10:55 am 10:55 Sunny 80 26.9 57 14.1 45 45 SW 12 19 29.82 1010 10 16 N/A
11:15 am 11:15 undefined 82 28 57 14.1 43 43 SW 13 20 29.81 1010 10 16 N/A
11:35 am 11:35 undefined 83 28.5 57 13.8 41 41 SW 9 15 29.81 1009 10 16 N/A
11:55 am 11:55 Sunny 84 28.9 56 13.2 38 38 SW 12 19 29.80 1009 10 16 N/A
12:15 pm 12:15 Sunny 85 29.7 53 11.9 33 33 SSW 9 15 29.79 1009 10 16 N/A
12:35 pm 12:35 Sunny 86 30 51 10.6 30 30 SSW 13 20 29.78 1008 10 16 N/A
12:55 pm 12:55 Sunny 86 30 52 11 31 31 SW 9 15 29.77 1008 10 16 N/A
1:15 pm 13:15 Sunny 86 30.2 49 9.3 27 27 S 10 17 29.77 1008 10 16 N/A
1:35 pm 13:35 Sunny 87 30.7 49 9.3 26 26 S 12 19 29.76 1008 10 16 N/A
1:55 pm 13:55 Sunny 87 30.6 49 9.4 27 27 SSW 14 22 29.76 1008 10 16 N/A
2:15 pm 14:15 Sunny 87 30.6 50 9.8 27 27 SW 12 19 29.76 1008 10 16 N/A
2:35 pm 14:35 Partly Cloudy 88 30.9 50 9.9 27 27 S 17 28 29.75 1007 7 11 N/A
2:55 pm 14:55 Partly Cloudy 88 31 49 9.7 27 27 S 6 9 29.75 1007 10 16 N/A
3:15 pm 15:15 undefined 88 31.1 50 10.2 27 27 S 8 13 29.74 1007 10 16 N/A
3:35 pm 15:35 undefined N/A N/A N/A S 14 22 N/A 10 16 N/A
3:55 pm 15:55 undefined N/A N/A N/A undefined N/A N/A N/A N/A
4:15 pm 16:15 Sunny 88 31.1 50 10.1 27 27 S 13 20 29.73 1007 10 16 N/A
4:35 pm 16:35 Sunny 88 31.1 51 10.5 28 28 S 14 22 29.73 1007 10 16 N/A
4:55 pm 16:55 Sunny 88 31 52 10.9 29 29 S 14 22 29.73 1007 10 16 N/A
5:15 pm 17:15 Sunny 88 31 51 10.5 28 28 SSW 14 22 29.72 1006 10 16 N/A
5:35 pm 17:35 Sunny 87 30.7 51 10.8 29 29 S 15 24 29.72 1007 10 16 N/A
5:55 pm 17:55 Sunny 87 30.8 51 10.8 29 29 S 15 24 29.72 1006 10 16 N/A
6:15 pm 18:15 Sunny 87 30.7 52 10.9 29 29 SSW 16 26 29.71 1006 10 16 N/A
6:35 pm 18:35 Sunny 87 30.3 52 11 30 30 SSW 15 24 29.72 1006 10 16 N/A
6:55 pm 18:55 Sunny 86 30 52 11.1 31 31 S 15 24 29.72 1006 10 16 N/A
7:15 pm 19:15 Sunny 85 29.5 51 10.8 31 31 S 16 26 29.72 1006 10 16 N/A
7:35 pm 19:35 Sunny 84 29 51 10.7 32 32 S 13 20 29.72 1006 10 16 N/A
7:55 pm 19:55 Sunny 83 28.5 51 10.6 33 33 S 13 20 29.72 1006 10 16 N/A
8:15 pm 20:15 Sunny 82 27.6 52 10.9 35 35 S 10 17 29.73 1007 10 16 N/A
8:35 pm 20:35 Sunny 80 26.7 52 11 37 37 S 8 13 29.74 1007 10 16 N/A
8:55 pm 20:55 Sunny 78 25.7 53 11.4 41 41 S 7 11 29.75 1008 10 16 N/A
9:15 pm 21:15 Clear 76 24.4 54 12 46 46 SSE 8 13 29.76 1008 10 16 N/A
9:35 pm 21:35 Clear 75 23.7 54 12.1 48 48 SSE 6 9 29.77 1008 10 16 N/A
9:55 pm 21:55 Clear 73 23 54 12.3 51 51 SSE 6 9 29.77 1008 10 16 N/A
10:15 pm 22:15 Clear 72 22.2 54 12.4 54 54 SSE 7 11 29.79 1009 10 16 N/A
10:35 pm 22:35 Clear 71 21.5 55 12.5 57 57 SSE 7 11 29.80 1009 10 16 N/A
10:55 pm 22:55 Clear 71 21.5 55 12.7 57 57 SSE 7 11 29.80 1009 10 16 N/A
11:15 pm 23:15 Clear 71 21.5 55 12.9 58 58 SSE 7 11 29.80 1009 10 16 N/A
11:35 pm 23:35 Clear 71 21.6 55 13 58 58 SSE 8 13 29.79 1009 10 16 N/A
11:55 pm 23:55 Clear 71 21.6 56 13.3 59 59 S 8 13 29.79 1009 10 16 N/A

Powered by AerisWeather